NWS Home NWS Lubbock West Texas Mesonet North Sector Latest Conditions as of 0136 PM, Sun Nov 17, 2019

Latest   N   C   S   Daily Sum   3hrΔ   24hrΔ   Soil Data 
Site Map   24hr Precip   72hr Precip   Google Plot


Station Time of Last Temp Dew Pt. RH Wind Direction Wind Speed Wind Gust Max Wind Max Temp Min Temp Max RH Min RH Altimeter 1HR Rain Today's Rain Solar Rad
Adrian 6WSW  01:30 PM 52 33 47% NE68 37 mph 23° @ 0129 AM 53 38 86 36 30.16" 0 0.00 588
Aiken 3WSW  01:30 PM 57 35 44% N1316 33 mph 21° @ 0911 AM 58 36 87 43 30.15" 0 0.00 648
Amarillo 15NNW   01:30 PM 57 34 42% NE89 32 mph 15° @ 0111 AM 58 39 86 37 30.14" 0 0.00 578
Amarillo 7SSE  01:30 PM 55 34 44% N1214 34 mph 5° @ 0222 AM 56 40 80 41 30.15" 0 0.00 609
Amarillo 9NNE  01:30 PM 57 33 41% N911 32 mph 357° @ 0211 AM 57 38 84 39 30.14" 0 0.00 535
Amherst 1NE  01:30 PM 57 35 45% N1221 38 mph 357° @ 0340 AM 57 36 77 45 30.16" 0 0.00 553
Bootleg 11WNW  01:30 PM 54 33 45% N49 33 mph 353° @ 0224 AM 54 35 90 34 30.19" 0 0.00 564
Boys Ranch 1WSW  01:30 PM 57 34 40% NE34 36 mph 16° @ 0159 AM 58 39 83 32 30.14" 0 0.00 578
Canadian 6E  01:30 PM 59 32 36% N1620 37 mph 2° @ 0230 AM 60 39 80 35 30.08" 0 0.00 615
Caprock Canyons State Park  01:30 PM 58 35 41% N1115 42 mph 352° @ 0344 AM 59 46 70 41 30.13" 0 0.00 635
Childress 2NNE  01:30 PM 63 35 35% N1626 32 mph 1° @ 0935 AM 63 41 74 35 30.09" 0 0.00 589
Clarendon 2WSW  01:30 PM 58 33 40% N1015 34 mph 2° @ 0335 AM 59 43 77 39 30.12" 0 0.00 608
Claude 12SW  01:30 PM 56 34 45% N1215 35 mph 355° @ 0251 AM 56 40 78 44 30.13" 0 0.00 635
Dimmitt 2NE  01:30 PM 54 35 49% N712 40 mph 358° @ 0305 AM 54 38 81 45 30.15" 0 0.00 612
Dozier 3W  01:30 PM 61 35 38% N1012 30 mph 5° @ 0437 AM 61 46 72 38 30.11" 0 0.00 606
Earth 9WSW  01:30 PM 57 36 45% N812 39 mph 2° @ 0319 AM 57 37 78 43 30.17" 0 0.00 621
Endee NM 2SW  01:30 PM 55 34 46% W12 40 mph 20° @ 0202 AM 55 32 87 40 30.17" 0 0.00 597
Estelline 3SSE  01:30 PM 63 35 36% N1416 28 mph 15° @ 0958 AM 63 43 74 36 30.10" 0 0.00 598
Floydada 2NNE  01:30 PM 60 34 39% N1522 30 mph 13° @ 0855 AM 60 36 89 38 30.12" 0 0.00 622
Friona 2NE  01:30 PM 55 35 47% NW48 37 mph 2° @ 0250 AM 56 37 86 40 30.17" 0 0.00 638
Fritch 1WNW  01:30 PM 56 34 44% N68 33 mph 14° @ 0101 AM 56 41 82 39 30.14" 0 0.00 596
Goodlett 3W  01:30 PM 64 36 36% N1520 33 mph 356° @ 0900 AM 64 40 76 36 30.07" 0 0.00 591
Goodnight  01:30 PM 58 35 42% N1316 35 mph 349° @ 0246 AM 58 41 76 41 30.14" 0 0.00 592
Happy 1E  01:30 PM 55 36 48% N1417 40 mph 8° @ 0253 AM 56 40 77 46 30.15" 0 0.00 620
Hart 3N  01:30 PM 55 37 50% N913 41 mph 352° @ 0325 AM 55 38 83 50 30.15" 0 0.00 624
Hereford 2NW  01:30 PM 54 35 49% NE710 34 mph 12° @ 0145 AM 55 38 83 41 30.15" 0 0.00 609
Lake McClellan 2NW  01:30 PM 57 33 41% N1418 36 mph 350° @ 0205 AM 57 41 72 40 30.13" 0 0.00 597
Lesley 2S  01:30 PM 63 35 35% N1114 31 mph 354° @ 0318 AM 63 47 71 34 30.11" 0 0.00 407
McLean 1E  01:30 PM 57 34 41% N1418 33 mph 355° @ 0335 AM 57 41 81 41 30.09" 0 0.00 624
Memphis 1NE  01:30 PM 62 33 35% N1014 34 mph 6° @ 0415 AM 62 46 67 35 30.11" 0 0.00 515
Muleshoe 2SSW  01:30 PM 56 36 47% NE1116 34 mph 7° @ 0300 AM 56 36 80 42 30.17" 0 0.00 617
Northfield 1S  01:30 PM 64 34 33% N1422 29 mph 9° @ 0920 AM 64 40 83 33 30.10" 0 0.00 594
Odell 4ENE  01:30 PM 64 38 38% N1316 30 mph 9° @ 1009 AM 65 38 85 36 30.08" 0 0.00 604
Olton 6S  01:30 PM 56 35 45% N1419 35 mph 7° @ 0425 AM 57 32 84 44 30.17" 0 0.00 576
Palo Duro 4E (JA Ranch)  01:30 PM 60 35 39% N710 37 mph 3° @ 0314 AM 61 42 79 39 30.12" 0 0.00 606
Palo Duro Canyon SP Floor  01:30 PM 61 35 37% N1116 24 mph 342° @ 0252 AM 62 41 72 37 30.13" 0 0.00 588
Palo Duro Canyon State Park Rim  01:30 PM 58 34 41% N1014 36 mph 349° @ 0138 AM 58 41 74 41 30.15" 0 0.00 639
Palo Duro Reservoir 1NW   01:30 PM 57 31 37% N56 34 mph 356° @ 0105 AM 57 38 84 35 30.12" 0 0.00 574
Pampa 2E  01:30 PM 55 32 43% NW1418 30 mph 353° @ 0230 AM 55 37 82 43 30.12" 0 0.00 581
Panhandle 1SSW  01:30 PM 55 34 46% NW1112 35 mph 356° @ 0148 AM 55 39 82 45 30.14" 0 0.00 606
Plainview 1S  01:30 PM 58 36 45% N1117 31 mph 7° @ 0405 AM 58 41 80 45 30.14" 0 0.00 563
Romero 11SSW  01:30 PM 57 33 41% E25 37 mph 10° @ 0128 AM 57 38 88 35 30.15" 0 0.00 579
Silverton 7ESE  01:30 PM 58 34 40% N1419 40 mph 357° @ 0300 AM 58 43 70 40 30.12" 0 0.00 575
South Plains 3ENE  01:30 PM 58 36 42% N1217 35 mph 8° @ 0331 AM 59 40 79 42 30.12" 0 0.00 606
Stinnett 1NNW  01:30 PM 55 32 41% NW57 40 mph 3° @ 0209 AM 55 38 87 41 30.14" 0 0.00 603
Stratford 4WNW  01:30 PM 56 28 35% NW77 35 mph 6° @ 1202 AM 56 35 90 34 30.13" 0 0.00 584
Tulia 2ENE  01:30 PM 56 35 45% N1014 36 mph 355° @ 0330 AM 56 40 73 45 30.14" 0 0.00 549
Turkey 2WSW  01:30 PM 60 35 40% NW1220 31 mph 328° @ 0330 AM 60 43 80 40 30.11" 0 0.00 552
Umbarger 3NNE  01:30 PM 55 35 47% NE810 37 mph 7° @ 0156 AM 55 39 82 43 30.15" 0 0.00 594
Vigo Park  01:30 PM 56 35 45% N913 35 mph 353° @ 0323 AM 57 41 76 45 30.14" 0 0.00 567

West Texas Mesonet Home   Site Map/Menu  NWS Lubbock Soil Data  Daily Summary Page  24hr Precip  72hr Precip  Google Plot